Regional Weather Roundup
Issued by NWS

Home | Current Version | Previous Version | Text Only | Print | Product List | Glossary Off
Versions: 1 2 3 4 5 6 7 8 9 10 11 12 13 14 15 16 17 18 19 20 21 22 23 24 25 26 27 28 29 30 31 32 33 34 35 36 37 38 39 40 41 42 43 44 45 46 47 48 49 50

000
ASUS43 KMPX 030710
RWRMN
WEATHER ROUNDUP FOR MINNESOTA
NATIONAL WEATHER SERVICE TWIN CITIES/CHANHASSEN MN
200 AM CDT WED JUN 03 2015


NOTE: "FAIR" INDICATES FEW OR NO CLOUDS BELOW 12,000 FEET WITH NO
SIGNIFICANT WEATHER AND/OR OBSTRUCTIONS TO VISIBILITY. N/A MEANS
CURRENT SKY AND/OR WEATHER CONDITIONS ARE NOT AVAILABLE.

MNZ060>063-068>070-030800-
   Twin Cities Metro

CITY           SKY/WX    TMP DP  RH WIND       PRES   REMARKS
TWIN CITIES    CLOUDY    66  53  63 S13G20    29.89F
ST PAUL        CLOUDY    63  53  70 SE10      29.90F
CRYSTAL        CLOUDY    68  53  58 S10       29.87F
BLAINE         CLOUDY    68  54  60 S12       29.88F
LAKEVILLE      PTCLDY    63  54  72 S9        29.90F
EDEN PRAIRIE   CLOUDY    67  54  63 S15G22    29.87F
SOUTH ST PAUL  CLOUDY    64  52  65 SE6       29.89F
LAKE ELMO      CLOUDY    63  54  72 S10       29.91F
$$
MNZ001>005-007-008-013>017-022>024-027-028-030800-
   Northwest Minnesota

CITY           SKY/WX    TMP DP  RH WIND       PRES   REMARKS
BEMIDJI        CLOUDY    61  56  83 E7        29.78S
HALLOCK        CLOUDY    57  54  88 N9        29.78S
ROSEAU         CLOUDY    61  55  82 NE10      29.79F HAZE
WARROAD        FOG       59  55  88 N9        29.81F VSB 1
THIEF RVR FALL CLOUDY    61  57  88 E9        29.77R
CROOKSTON      CLOUDY    61  61 100 NE7       29.73S
FOSSTON        CLOUDY    59  55  88 NE9       29.77R
DETROIT LAKES  PTCLDY    66  57  72 S13       29.75S
MOORHEAD       CLEAR     70  61  73 S14       29.69S
PARK RAPIDS    TSTM      65  56  72 S13       29.77S
MAHNOMEN       CLOUDY    63  60  90 SE8       29.73F
$$
MNZ006-009>011-018-025>026-030800-
   North Central Minnesota

CITY           SKY/WX    TMP DP  RH WIND       PRES   REMARKS
BAUDETTE       CLOUDY    59  57  93 E5        29.80S
FLAG ISLAND    CLOUDY    57  57 100 NE9       29.81F FOG
INTL FALLS     LGT RAIN  59  57  93 S6        29.82F
WASKISH        DRIZZLE   59  57  94 CALM      29.83R
BIG FORK       CLOUDY    61  57  88 NE3       29.85R
LONGVILLE      MOCLDY    66  52  59 S14       29.80S
GRAND RAPIDS   CLOUDY    63  52  67 S14G21    29.81F
CRANE LAKE     TSTM      55  55 100 CALM      29.88F
ORR            CLOUDY    57  54  88 CALM      29.87R
COOK           CLOUDY    59  54  82 E3        29.87R THUNDER
WALKER         PTSUNNY   65  53  63 S7        29.78S THUNDER
$$
MNZ012-019>021-037-030800-
   Northeast Minnesota

CITY           SKY/WX    TMP DP  RH WIND       PRES   REMARKS
DULUTH         CLOUDY    52  42  69 SE7       29.89S
ELY            CLOUDY    61  50  67 S7        29.86S THUNDER
HIBBING        CLOUDY    60  52  74 S6        29.85S
EVELETH        CLOUDY    57  52  82 SE5       29.87R
DULUTH HARBOR  MOCLDY    46  41  81 NE8       29.91R
TWO HARBORS    CLOUDY    54  48  82 CALM      29.88F THUNDER
SILVER BAY     MOCLDY    48  46  93 CALM      29.88F THUNDER
GRAND MARAIS     N/A     47  40  76 E5        29.91F
G MARAIS ARPRT CLOUDY    48  45  87 CALM      29.93F
$$
MNZ029>031-032-039>041-046>048-054>057-064-030800-
   West Central Minnesota

CITY           SKY/WX    TMP DP  RH WIND       PRES   REMARKS
FERGUS FALLS   PTCLDY    66  57  72 S16       29.73S
WHEATON        MOCLDY    63  57  82 SE14      29.74S
MORRIS         PTCLDY    66  57  72 S16       29.75F
ALEXANDRIA     PTCLDY    66  55  67 S17G25    29.79F
ELBOW LAKE     FAIR      65  57  74 S17G26    29.74F
WADENA         CLOUDY    64  57  77 S9        29.78R THUNDER
GLENWOOD       PTCLDY    64  55  72 S18       29.80F
APPLETON       PTCLDY    68  57  68 S9        29.75S
BENSON         PTCLDY    66  55  68 S12G17    29.78S
ORTONVILLE     MOCLDY    70  61  73 S7        29.75R
MADISON        MOCLDY    70  59  68 S17       29.75F
WILLMAR        FAIR      66  55  68 S12G20    29.82F
$$
MNZ033>034-036-042>043-049>051-058-059-030800-
   Central Minnesota

CITY           SKY/WX    TMP DP  RH WIND       PRES   REMARKS
ST CLOUD       CLOUDY    66  53  63 S14       29.84F
SAUK CENTRE    PTSUNNY   64  55  71 S13       29.81S
PAYNESVILLE    CLEAR     62  54  73 SE15G21   29.82F
AITKIN         CLOUDY    66  54  63 S12       29.83R
PINE RIVER     PTCLDY    66  54  63 S14       29.84S
BRAINERD       CLOUDY    67  52  58 S16G23    29.83S
STAPLES        TSTM      64  54  68 S12       29.79F
LONG PRAIRIE   FAIR      63  54  72 SE16      29.81S
LITTLE FALLS   CLOUDY    64  52  63 S9        29.83S
LITCHFIELD     PTCLDY    64  55  72 S7        29.83F
BUFFALO        PTCLDY    66  53  61 S9G20     29.87R
MAPLE LAKE     PTCLDY    66  56  68 S7        29.87R
$$
MNZ037-044-045-052-053-030800-
   East Central Minnesota

CITY           SKY/WX    TMP DP  RH WIND       PRES   REMARKS
PRINCETON      CLOUDY    68  54  60 S9        29.86S
MORA           CLOUDY    64  52  63 S8        29.88S
CAMBRIDGE      MOCLDY    70  54  56 S8        29.85S
RUSH CITY      CLOUDY    64  52  65 S8        29.88S
MOOSE LAKE     CLOUDY    63  50  63 S8        29.85S
HINCKLEY       CLOUDY    64  52  63 S9G16     29.88R
CLOQUET        CLOUDY    48  43  81 E5        29.88R
MCGREGOR       CLOUDY    63  52  67 S9        29.86R
$$
MNZ071>073-080-081-089-090-097-098-030800-
   Southwest Minnesota

CITY           SKY/WX    TMP DP  RH WIND       PRES   REMARKS
MONTEVIDEO     MOCLDY    66  57  72 SW13G18   29.78F
GRANITE FALLS  MOCLDY    65  56  72 SE15      29.80F
CANBY          MOCLDY    69  60  73 SW16G28   29.77F
MARSHALL       MOCLDY    66  55  68 S17G23    29.79S
REDWOOD FALLS  MOCLDY    65  56  72 S15       29.81F
OLIVIA         PTCLDY    63  52  67 S15       29.81F
PIPESTONE      MOCLDY    64  57  77 S17       29.82F
WINDOM         PTCLDY    64  55  72 S15G21    29.85F
WORTHINGTON    MOCLDY    63  54  72 S18G24    29.86S
JACKSON        PTCLDY    63  55  77 S16       29.89S
TRACY          MOCLDY    66  57  72 S20G25    29.81S
SLAYTON        MOCLDY    64  58  81 S15       29.85S
$$
MNZ065>067-074>077-082>085-091>093-030800-
   South Central Minnesota

CITY           SKY/WX    TMP DP  RH WIND       PRES   REMARKS
MANKATO        PTCLDY    64  54  68 S12G17    29.89F
NEW ULM        PTCLDY    63  54  72 S13       29.85F
ST JAMES       FAIR      66  57  72 SE18G24   29.87F
FAIRMONT       PTCLDY    63  52  67 S15       29.88F
GLENCOE        PTCLDY    66  56  71 S8G21     29.85F
FARIBAULT      PTCLDY    63  54  72 S10       29.91F
OWATONNA       PTCLDY    63  54  72 S10G16    29.92F
WASECA         MOCLDY    63  52  67 S15G21    29.92F
ALBERT LEA     PTCLDY    63  54  72 S10G18    29.93F
$$
MNZ078>079-086>088-094>096-030800-
   Southeast Minnesota

CITY           SKY/WX    TMP DP  RH WIND       PRES   REMARKS
ROCHESTER      CLEAR     60  53  77 S14       29.97S
RED WING       PTCLDY    63  52  67 SE5       29.93S
STANTON        PTCLDY    63  53  71 S8        29.90F
DODGE CENTER   PTCLDY    61  54  77 S15       29.94F
WINONA         CLEAR     59  50  72 SE5       29.97S
AUSTIN         PTCLDY    61  54  77 S9        29.95F
PRESTON        CLEAR     55  51  86 S7        29.98F
$$
ABBREVIATIONS USED IN REMARKS
   TC - TEMPERATURES IN CELSIUS
  WCI - WIND CHILL INDEX
   HX - HEAT INDEX
  VSB - VISIBILITY
$$


USA.gov is the U.S. government's official web portal to all federal, state and local government web resources and services.